When you browse on this site, cookies collect data to enhance your experience and personalize the content and advertising you see.
Visit our Privacy Policy to learn more. By continuing to use the site, you agree to this use of cookies and data.
  • Em Portugal
  • Lista de países
  • Para 7 dias
  • Temperatura da água
  • Mapas de satélite
  • Mapa do tempo
  • Widgets de tempo
  • user-avatar
    Iniciar Sessão

    Previsão horária em Nagano

    Hoje, 21 Abril, Domingo

    Tempo Temperatura Precipitação Vento Pressão Humidade
    00:00 +9°C° 0 mm 1 m/s 693 mmHg 71%
    01:00 +9°C° 0 mm 1 m/s 692 mmHg 70%
    02:00 +9°C° 0 mm 1 m/s 692 mmHg 70%
    03:00 +8°C° 0 mm 1 m/s 692 mmHg 70%
    04:00 +9°C° 0 mm 1 m/s 692 mmHg 68%
    05:00 +9°C° 0 mm 1 m/s 692 mmHg 67%
    06:00 +9°C° 0 mm 1 m/s 692 mmHg 65%
    07:00 +12°C° 0 mm 1 m/s 693 mmHg 57%
    08:00 +15°C° 0 mm 1 m/s 693 mmHg 48%
    09:00 +19°C° 0 mm 1 m/s 694 mmHg 40%
    10:00 +20°C° 0 mm 1 m/s 694 mmHg 38%
    11:00 +22°C° 0 mm 1 m/s 694 mmHg 36%
    12:00 +24°C° 0 mm 1 m/s 694 mmHg 34%
    13:00 +24°C° 0 mm 1 m/s 693 mmHg 37%
    14:00 +23°C° 0 mm 1 m/s 693 mmHg 39%
    15:00 +22°C° 0 mm 1 m/s 693 mmHg 41%
    16:00 +21°C° 0 mm 1 m/s 693 mmHg 47%
    17:00 +19°C° 0 mm 1 m/s 693 mmHg 54%
    18:00 +18°C° 0 mm 1 m/s 693 mmHg 60%
    19:00 +16°C° 0 mm 1 m/s 693 mmHg 63%
    20:00 +15°C° 0 mm 1 m/s 693 mmHg 66%
    21:00 +14°C° 0 mm 1 m/s 693 mmHg 70%
    22:00 +14°C° 0.1 mm 1 m/s 693 mmHg 71%
    23:00 +14°C° 0.1 mm 1 m/s 693 mmHg 72%

    Amanhã, 22 Abril, Segunda-feira

    Tempo Temperatura Precipitação Vento Pressão Humidade
    00:00 +13°C° 0.1 mm 1 m/s 693 mmHg 73%
    01:00 +13°C° 0.1 mm 1 m/s 692 mmHg 74%
    02:00 +13°C° 0.1 mm 1 m/s 692 mmHg 75%
    03:00 +13°C° 0.1 mm 1 m/s 692 mmHg 77%
    04:00 +13°C° 0 mm 1 m/s 692 mmHg 78%
    05:00 +13°C° 0 mm 1 m/s 693 mmHg 79%
    06:00 +12°C° 0 mm 1 m/s 693 mmHg 80%
    07:00 +14°C° 0 mm 1 m/s 693 mmHg 73%
    08:00 +16°C° 0 mm 1 m/s 694 mmHg 66%
    09:00 +19°C° 0 mm 1 m/s 694 mmHg 60%
    10:00 +19°C° 0 mm 2 m/s 695 mmHg 55%
    11:00 +21°C° 0 mm 2 m/s 695 mmHg 50%
    12:00 +23°C° 0 mm 2 m/s 695 mmHg 45%
    13:00 +22°C° 0 mm 3 m/s 695 mmHg 46%
    14:00 +21°C° 0 mm 3 m/s 695 mmHg 46%
    15:00 +21°C° 0 mm 4 m/s 695 mmHg 46%
    16:00 +19°C° 0 mm 3 m/s 695 mmHg 50%
    17:00 +17°C° 0 mm 3 m/s 695 mmHg 55%
    18:00 +16°C° 0 mm 2 m/s 695 mmHg 59%
    19:00 +14°C° 0 mm 2 m/s 695 mmHg 62%
    20:00 +13°C° 0 mm 1 m/s 696 mmHg 65%
    21:00 +12°C° 0 mm 1 m/s 696 mmHg 68%
    22:00 +12°C° 0 mm 1 m/s 696 mmHg 66%
    23:00 +11°C° 0 mm 1 m/s 696 mmHg 64%

    Depois de amanhã, 23 Abril, Terça-feira

    Tempo Temperatura Precipitação Vento Pressão Humidade
    00:00 +10°C° 0 mm 0 m/s 696 mmHg 63%
    01:00 +11°C° 0 mm 1 m/s 696 mmHg 66%
    02:00 +11°C° 0 mm 1 m/s 696 mmHg 69%
    03:00 +11°C° 0 mm 1 m/s 696 mmHg 72%
    04:00 +11°C° 0 mm 1 m/s 696 mmHg 74%
    05:00 +12°C° 0 mm 1 m/s 697 mmHg 75%
    06:00 +12°C° 0 mm 1 m/s 697 mmHg 77%
    07:00 +14°C° 0 mm 2 m/s 697 mmHg 71%
    08:00 +16°C° 0 mm 2 m/s 698 mmHg 65%
    09:00 +19°C° 0 mm 2 m/s 698 mmHg 59%
    10:00 +20°C° 0 mm 2 m/s 699 mmHg 54%
    11:00 +21°C° 0 mm 3 m/s 699 mmHg 49%
    12:00 +24°C° 0 mm 3 m/s 699 mmHg 44%
    13:00 +24°C° 0 mm 3 m/s 699 mmHg 43%
    14:00 +25°C° 0 mm 2 m/s 698 mmHg 43%
    15:00 +25°C° 0 mm 2 m/s 698 mmHg 42%
    16:00 +23°C° 0 mm 2 m/s 698 mmHg 49%
    17:00 +21°C° 0 mm 2 m/s 698 mmHg 55%
    18:00 +19°C° 0 mm 2 m/s 698 mmHg 61%
    19:00 +18°C° 0 mm 2 m/s 698 mmHg 65%
    20:00 +17°C° 0 mm 2 m/s 698 mmHg 68%
    21:00 +16°C° 0 mm 1 m/s 698 mmHg 71%
    22:00 +15°C° 0 mm 1 m/s 698 mmHg 73%
    23:00 +15°C° 0 mm 1 m/s 698 mmHg 74%

    24 Abril, Quarta-feira

    Tempo Temperatura Precipitação Vento Pressão Humidade
    00:00 +15°C° 0 mm 1 m/s 697 mmHg 76%
    01:00 +14°C° 0 mm 1 m/s 697 mmHg 77%
    02:00 +14°C° 0 mm 1 m/s 697 mmHg 78%
    03:00 +14°C° 0 mm 1 m/s 697 mmHg 80%
    04:00 +14°C° 0 mm 1 m/s 697 mmHg 79%
    05:00 +14°C° 0 mm 1 m/s 697 mmHg 79%
    06:00 +14°C° 0 mm 1 m/s 697 mmHg 78%
    07:00 +16°C° 0 mm 1 m/s 697 mmHg 68%
    08:00 +18°C° 0 mm 2 m/s 697 mmHg 58%
    09:00 +20°C° 0 mm 2 m/s 697 mmHg 48%
    10:00 +21°C° 0 mm 2 m/s 697 mmHg 44%
    11:00 +23°C° 0 mm 2 m/s 697 mmHg 40%
    12:00 +24°C° 0 mm 3 m/s 697 mmHg 37%
    13:00 +23°C° 0.2 mm 2 m/s 696 mmHg 41%
    14:00 +23°C° 0.2 mm 2 m/s 696 mmHg 45%
    15:00 +21°C° 0.2 mm 2 m/s 695 mmHg 49%
    16:00 +20°C° 0.3 mm 2 m/s 695 mmHg 55%
    17:00 +19°C° 0.3 mm 2 m/s 695 mmHg 61%
    18:00 +17°C° 0.3 mm 2 m/s 694 mmHg 68%
    19:00 +17°C° 0.3 mm 2 m/s 694 mmHg 70%
    20:00 +16°C° 0.3 mm 2 m/s 694 mmHg 73%
    21:00 +15°C° 0.3 mm 2 m/s 694 mmHg 76%
    22:00 +15°C° 0.2 mm 2 m/s 693 mmHg 76%
    23:00 +14°C° 0.2 mm 1 m/s 693 mmHg 76%

    25 Abril, Quinta-feira

    Tempo Temperatura Precipitação Vento Pressão Humidade
    00:00 +14°C° 0.2 mm 1 m/s 692 mmHg 76%
    01:00 +13°C° 0.2 mm 1 m/s 691 mmHg 77%
    02:00 +13°C° 0.2 mm 1 m/s 691 mmHg 78%
    03:00 +13°C° 0.2 mm 1 m/s 690 mmHg 79%
    04:00 +13°C° 0.1 mm 1 m/s 690 mmHg 79%
    05:00 +13°C° 0.1 mm 2 m/s 690 mmHg 80%
    06:00 +14°C° 0.1 mm 2 m/s 690 mmHg 81%
    07:00 +14°C° 0.8 mm 2 m/s 690 mmHg 80%
    08:00 +15°C° 0.8 mm 1 m/s 690 mmHg 78%
    09:00 +16°C° 0.8 mm 1 m/s 690 mmHg 77%
    10:00 +16°C° 1.4 mm 1 m/s 689 mmHg 78%
    11:00 +16°C° 1.4 mm 1 m/s 689 mmHg 79%
    12:00 +18°C° 1.4 mm 1 m/s 689 mmHg 79%
    13:00 +18°C° 0.2 mm 1 m/s 688 mmHg 78%
    14:00 +19°C° 0.2 mm 1 m/s 688 mmHg 77%
    15:00 +19°C° 0.2 mm 1 m/s 688 mmHg 75%
    16:00 +19°C° 0 mm 1 m/s 688 mmHg 76%
    17:00 +19°C° 0 mm 1 m/s 687 mmHg 78%
    18:00 +19°C° 0 mm 1 m/s 687 mmHg 79%
    19:00 +18°C° 0 mm 1 m/s 687 mmHg 81%
    20:00 +16°C° 0 mm 1 m/s 687 mmHg 84%
    21:00 +16°C° 0 mm 1 m/s 687 mmHg 87%
    22:00 +15°C° 0 mm 1 m/s 687 mmHg 87%
    23:00 +15°C° 0 mm 1 m/s 686 mmHg 88%

    26 Abril, Sexta-feira

    Tempo Temperatura Precipitação Vento Pressão Humidade
    00:00 +15°C° 0 mm 1 m/s 686 mmHg 88%
    01:00 +15°C° 0.1 mm 1 m/s 686 mmHg 88%
    02:00 +15°C° 0.1 mm 1 m/s 685 mmHg 88%
    03:00 +15°C° 0.1 mm 1 m/s 685 mmHg 87%
    04:00 +15°C° 0.1 mm 1 m/s 685 mmHg 87%
    05:00 +16°C° 0.1 mm 1 m/s 685 mmHg 87%
    06:00 +16°C° 0.1 mm 1 m/s 686 mmHg 87%
    07:00 +19°C° 0.1 mm 1 m/s 686 mmHg 78%
    08:00 +20°C° 0.1 mm 2 m/s 687 mmHg 68%
    09:00 +23°C° 0.1 mm 2 m/s 687 mmHg 59%
    10:00 +23°C° 0.1 mm 2 m/s 687 mmHg 56%
    11:00 +24°C° 0.1 mm 2 m/s 687 mmHg 54%
    12:00 +24°C° 0.1 mm 3 m/s 687 mmHg 51%
    13:00 +22°C° 0.1 mm 3 m/s 687 mmHg 55%
    14:00 +20°C° 0.1 mm 3 m/s 687 mmHg 59%
    15:00 +19°C° 0.1 mm 3 m/s 687 mmHg 63%
    16:00 +18°C° 0 mm 3 m/s 687 mmHg 66%
    17:00 +17°C° 0 mm 2 m/s 687 mmHg 68%
    18:00 +15°C° 0 mm 2 m/s 687 mmHg 71%
    19:00 +14°C° 0 mm 2 m/s 687 mmHg 74%
    20:00 +13°C° 0 mm 2 m/s 688 mmHg 76%
    21:00 +12°C° 0 mm 2 m/s 688 mmHg 79%
    22:00 +10°C° 0.1 mm 2 m/s 688 mmHg 79%
    23:00 +10°C° 0.1 mm 2 m/s 688 mmHg 80%
    Mostrar mais